Regional Weather Roundup
Issued by NWS

Home | Current Version | Previous Version | Graphics & Text | Print | Product List | Glossary Off
Versions: 1 2 3 4 5 6 7 8 9 10 11 12 13 14 15 16 17 18 19 20 21 22 23 24 25 26 27 28 29 30 31 32 33 34 35 36 37 38 39 40 41 42 43 44 45 46 47 48 49 50

000
ASUS43 KMPX 101901
RWRMN
WEATHER ROUNDUP FOR MINNESOTA
NATIONAL WEATHER SERVICE TWIN CITIES/CHANHASSEN MN
100 PM CST WED FEB 10 2016


NOTE: "FAIR" INDICATES FEW OR NO CLOUDS BELOW 12,000 FEET WITH NO
SIGNIFICANT WEATHER AND/OR OBSTRUCTIONS TO VISIBILITY. N/A MEANS
CURRENT SKY AND/OR WEATHER CONDITIONS ARE NOT AVAILABLE.

MNZ060>063-068>070-102000-
   Twin Cities Metro

CITY           SKY/WX    TMP DP  RH WIND       PRES   REMARKS
TWIN CITIES    CLOUDY    10  -4  53 NW6       30.11F WCI   0
ST PAUL        SUNNY      9  -4  55 VRB3      30.14F
CRYSTAL        CLOUDY    10  -4  53 N8        30.11F WCI  -2
LAKEVILLE      MOSUNNY    9  -2  61 NE5       30.09F WCI   0
EDEN PRAIRIE   CLOUDY    11  -3  53 VRB5      30.10F WCI   3
SOUTH ST PAUL  SUNNY     10  -4  52 N3        30.11F
LAKE ELMO      FAIR       9  -4  56 NW3       30.11F
$$
MNZ001>005-007-008-013>017-022>024-027-028-102000-
   Northwest Minnesota

CITY           SKY/WX    TMP DP  RH WIND       PRES   REMARKS
BEMIDJI        CLOUDY     4  -6  62 SE3       30.09F
HALLOCK        CLOUDY     7  -4  61 NE5       30.19S WCI  -2
ROSEAU         CLOUDY     0  -8  71 NE8       30.18S WCI -15
WARROAD        CLOUDY    -4  -9  77 NE5       30.19S WCI -15
THIEF RVR FALL CLOUDY     5   0  78 NE7       30.15S WCI  -7
CROOKSTON      CLOUDY     9   0  66 CALM      30.17S
FOSSTON          N/A      9  -2  61 NE6       30.11F WCI  -1
DETROIT LAKES  CLOUDY    10   0  61 S3        30.08F
MOORHEAD       CLOUDY    12   1  62 CALM      30.13S
PARK RAPIDS    CLOUDY     8  -7  50 NE5       30.07F WCI   0
MAHNOMEN       MOCLDY     8  -2  63 NE5       30.09F WCI   0
$$
MNZ006-009>011-018-025>026-102000-
   North Central Minnesota

CITY           SKY/WX    TMP DP  RH WIND       PRES   REMARKS
BAUDETTE       CLOUDY    -4 -13  65 SW3       30.15F
FLAG ISLAND    CLOUDY    -6 -11  77 CALM      30.19S
INTL FALLS     CLOUDY    -2 -13  59 N7        30.15F WCI -15
WASKISH        CLOUDY     1  -8  66 CALM      30.14F
LONGVILLE      MOSUNNY    5  -8  56 N5        30.10S WCI  -4
GRAND RAPIDS   SUNNY      1  -9  60 NW6       30.09S WCI -10
CRANE LAKE     SUNNY     -4 -13  65 N2        30.16F
ORR            SUNNY      1 -13  51 CALM      30.07F
COOK           SUNNY      1 -11  55 CALM      30.10F
WALKER         FAIR       2  -8  61 E3        30.10S
$$
MNZ012-019>021-037-102000-
   Northeast Minnesota

CITY           SKY/WX    TMP DP  RH WIND       PRES   REMARKS
DULUTH         MOSUNNY    7  -9  48 N7        30.06S WCI  -5
ELY            SUNNY      0  -9  65 NE6       30.07F WCI -12
HIBBING        MOSUNNY    2  -9  60 NW5       30.08F WCI  -8
EVELETH        SUNNY      5  -9  51 CALM      30.08F
DULUTH HARBOR  SUNNY      9   0  66 CALM      30.15F
TWO HARBORS    SUNNY     12  -6  44 CALM      30.06F
SILVER BAY     SUNNY     10  -9  40 E5        30.06F WCI   2
GRAND MARAIS     N/A      9  -8  46 VRB3      30.12F
G MARAIS ARPRT SUNNY      0 -13  55 N9        29.99S WCI -16
$$
MNZ029>031-032-039>041-046>048-054>057-064-102000-
   West Central Minnesota

CITY           SKY/WX    TMP DP  RH WIND       PRES   REMARKS
FERGUS FALLS   CLOUDY    10   0  61 SE3       30.12F
WHEATON        LGT SNOW  10   7  85 E9        30.10F WCI  -2
MORRIS         CLOUDY    10   3  72 E7        30.07F WCI   0
ALEXANDRIA     CLOUDY     9  -2  61 E8        30.06F WCI  -3
ELBOW LAKE     LGT SNOW  10   1  64 S5        30.08F WCI   2
WADENA         CLOUDY     7  -2  66 CALM      30.07F
GLENWOOD       CLOUDY    10   0  61 E8        30.07F WCI  -1
APPLETON       FLURRIES  10   5  79 E7        30.08F WCI   0
BENSON         CLOUDY    12   1  62 CALM      30.08F
ORTONVILLE     FLURRIES  10   3  72 E8        30.07F WCI  -1
MADISON        CLOUDY    12   7  79 E10       30.08F WCI  -1
WILLMAR        FAIR      12   1  62 E5        30.08F WCI   4
$$
MNZ033>034-036-042>043-049>051-058-059-102000-
   Central Minnesota

CITY           SKY/WX    TMP DP  RH WIND       PRES   REMARKS
ST CLOUD       CLOUDY     9  -4  55 VRB7      30.11S WCI  -2
SAUK CENTRE    FAIR       8  -2  63 E5        30.08F WCI   0
PAYNESVILLE    CLOUDY    10  -1  59 CALM      30.09S
AITKIN         CLOUDY     7 -11  43 CALM      30.09S
PINE RIVER       N/A      3  -6  66 CALM      30.12F
BRAINERD       CLOUDY     5  -8  55 NE6       30.09F WCI  -6
STAPLES        CLOUDY     7  -8  51 CALM      30.08F
LONG PRAIRIE   CLOUDY     9  -4  56 NE3       30.08S
LITTLE FALLS   CLOUDY     9  -6  52 CALM      30.11S
LITCHFIELD     CLOUDY    12   0  57 E3        30.09F
BUFFALO        CLOUDY    10  -3  57 NE5       30.12S WCI   1
MAPLE LAKE     CLOUDY    11  -1  59 NE5       30.11S WCI   2
$$
MNZ037-044-045-052-053-102000-
   East Central Minnesota

CITY           SKY/WX    TMP DP  RH WIND       PRES   REMARKS
PRINCETON      SUNNY      9  -4  56 CALM      30.11S
MORA           CLOUDY     9  -6  52 CALM      30.13S
CAMBRIDGE      SUNNY      9  -4  56 CALM      30.11S
RUSH CITY      MOSUNNY    5  -5  63 NW5       30.13S WCI  -4
MOOSE LAKE     SUNNY      7  -9  47 CALM      30.09S
HINCKLEY       FAIR       9  -6  52 CALM      30.11F
CLOQUET        SUNNY      5  -9  51 CALM      30.07F
MCGREGOR       MOSUNNY    7  -6  56 NW5       30.10S WCI  -2
$$
MNZ071>073-080-081-089-090-097-098-102000-
   Southwest Minnesota

CITY           SKY/WX    TMP DP  RH WIND       PRES   REMARKS
MONTEVIDEO     FLURRIES  12   7  79 SE8       30.09F WCI   1
GRANITE FALLS  LGT SNOW  13   7  78 NE8       30.10S WCI   2
CANBY          FLURRIES  15  10  79 SE9       30.07R WCI   3
MARSHALL       FLURRIES  11   5  77 SE10      30.06S WCI  -3
REDWOOD FALLS  CLOUDY    11   4  73 SE5       30.08F WCI   3
OLIVIA         CLOUDY    12   3  67 E5        30.08S WCI   4
PIPESTONE      CLOUDY    16   5  62 E13       29.97R HAZE    WCI   2
WINDOM         CLOUDY    10   5  79 E9        30.02F WCI  -2
WORTHINGTON    CLOUDY    10   5  79 E14       30.00R WCI  -5
JACKSON        FLURRIES  12   5  73 E10       30.02F WCI  -1
TRACY          CLOUDY    12   7  79 E9        30.04S WCI   0
SLAYTON        FLURRIES  12   8  85 E13       30.00S WCI  -3
$$
MNZ065>067-074>077-082>085-091>093-102000-
   South Central Minnesota

CITY           SKY/WX    TMP DP  RH WIND       PRES   REMARKS
MANKATO        CLOUDY    10   0  61 CALM      30.08F
NEW ULM        CLOUDY    10   0  61 E5        30.08F WCI   2
ST JAMES       FLURRIES  10   5  79 NE6       30.08F WCI   1
FAIRMONT       CLOUDY    10   3  72 NE7       30.05S WCI   0
GLENCOE        CLOUDY    12   2  64 CALM      30.09F
FARIBAULT        N/A     10  -2  56 N6        30.08F WCI   1
OWATONNA       MOSUNNY   10  -2  56 NW5       30.07S WCI   2
WASECA         CLOUDY    12   3  67 N5        30.09S WCI   4
ALBERT LEA     CLOUDY    10   1  67 E3        30.06S
$$
MNZ078>079-086>088-094>096-102000-
   Southeast Minnesota

CITY           SKY/WX    TMP DP  RH WIND       PRES   REMARKS
ROCHESTER      CLOUDY     9  -3  58 N9        30.04F WCI  -4
RED WING       MOSUNNY    9  -6  52 NW5       30.11F WCI   0
STANTON        MOSUNNY    9  -1  63 N5        30.09F WCI   1
DODGE CENTER   CLOUDY    10  -2  56 N8        30.05S WCI  -1
WINONA         SUNNY     12   0  57 NW3       30.11F
AUSTIN         CLOUDY     9  -2  61 NW7       30.05F WCI  -3
PRESTON        CLOUDY     7  -5  57 N7        30.04F WCI  -4
$$
ABBREVIATIONS USED IN REMARKS
   TC - TEMPERATURES IN CELSIUS
  WCI - WIND CHILL INDEX
   HX - HEAT INDEX
  VSB - VISIBILITY
$$



USA.gov is the U.S. government's official web portal to all federal, state and local government web resources and services.